Kenner, LA

12:14 AM CST on February 09, 2016 (GMT -0600)
New Orleans International

Weather History for KMSY - November, 2012

Change the Weather History Date:

Wednesday, November 28, 2012

  Actual Average Record
Temperature  
Mean Temperature 54 °F -  
Max Temperature 61 °F 66 °F 82 °F (1960)
Min Temperature 48 °F 47 °F 28 °F (1993)
Degree Days  
Heating Degree Days 10    
Growing Degree Days 4 (Base 50)    
Moisture  
Dew Point 43 °F    
Average Humidity 71    
Maximum Humidity 93    
Minimum Humidity 44    
Precipitation  
Precipitation 0.00 in - - ()
Sea Level Pressure  
Sea Level Pressure 30.37 in    
Wind  
Wind Speed 9 mph (NNE)    
Max Wind Speed 13 mph    
Max Gust Speed -    
Visibility 8 miles    
Events      
Averages and records for this station are not official NWS values.
T = Trace of Precipitation, MM = Missing Value Source: NWS Daily Summary

Daily Weather History Graph

Daily Weather History Graph

Search for Another Location

Airport or City:

Trip Planner

Search our weather history database for the weather conditions in past years. The results will help you decide how hot, cold, wet, or windy it might be!

Date:

Astronomy

Nov. 28, 2012 Rise Set
Actual Time 6:37 AM CST 5:00 PM CST
Civil Twilight 6:11 AM CST 5:26 PM CST
Nautical Twilight 5:41 AM CST 5:56 PM CST
Astronomical Twilight 5:13 AM CST 6:25 PM CST
Moon 5:16 PM CST (11/28) 6:34 AM CST (11/28)
Length of Visible Light 11h 15m
Length of Day
10h 23m
Full, 100% of the Moon is Illuminated
Nov 28
Full
Dec 6
Last Quarter
Dec 13
New
Dec 19
First Quarter
Dec 28
Full

Hourly Weather History & Observations

Time (CST) Temp. Dew Point Humidity Pressure Visibility Wind Dir Wind Speed Gust Speed Precip Events Conditions
12:53 AM 51.1 °F 48.9 °F 92% 30.31 in 8.0 mi North 11.5 mph - N/A   Overcast
1:53 AM 51.1 °F 48.0 °F 89% 30.31 in 8.0 mi North 10.4 mph - N/A   Overcast
2:53 AM 50.0 °F 48.0 °F 93% 30.31 in 7.0 mi North 10.4 mph - N/A   Overcast
3:53 AM 50.0 °F 48.0 °F 93% 30.33 in 7.0 mi North 11.5 mph - N/A   Overcast
4:53 AM 50.0 °F 48.0 °F 93% 30.35 in 7.0 mi North 10.4 mph - N/A   Overcast
5:35 AM 48.2 °F 46.4 °F 93% 30.35 in 5.0 mi NNE 12.7 mph - N/A   Overcast
5:53 AM 48.9 °F 46.9 °F 93% 30.37 in 4.0 mi NNE 12.7 mph - N/A   Overcast
6:53 AM 48.9 °F 46.9 °F 93% 30.39 in 3.0 mi NNE 11.5 mph - N/A   Overcast
7:06 AM 48.2 °F 46.4 °F 93% 30.38 in 2.0 mi North 9.2 mph - N/A   Overcast
7:53 AM 48.0 °F 45.0 °F 89% 30.41 in 3.0 mi North 12.7 mph - N/A   Overcast
8:53 AM 48.9 °F 44.1 °F 83% 30.43 in 6.0 mi North 9.2 mph - N/A   Haze
9:37 AM 51.8 °F 44.6 °F 76% 30.43 in 8.0 mi North 8.1 mph - N/A   Mostly Cloudy
9:53 AM 52.0 °F 44.1 °F 74% 30.44 in 8.0 mi NNE 10.4 mph - N/A   Scattered Clouds
9:58 AM 51.8 °F 44.6 °F 76% 30.43 in 8.0 mi North 9.2 mph - N/A   Scattered Clouds
10:53 AM 53.1 °F 45.0 °F 74% 30.43 in 9.0 mi NNE 10.4 mph - N/A   Scattered Clouds
11:53 AM 54.0 °F 44.1 °F 69% 30.41 in 9.0 mi NNE 8.1 mph - N/A   Clear
12:53 PM 57.0 °F 43.0 °F 59% 30.38 in 10.0 mi NNE 8.1 mph - N/A   Partly Cloudy
1:53 PM 59.0 °F 43.0 °F 55% 30.35 in 10.0 mi North 8.1 mph - N/A   Partly Cloudy
2:53 PM 60.1 °F 39.9 °F 47% 30.33 in 10.0 mi North 6.9 mph - N/A   Partly Cloudy
3:53 PM 60.1 °F 37.9 °F 44% 30.32 in 10.0 mi NNE 5.8 mph - N/A   Partly Cloudy
4:53 PM 55.9 °F 39.0 °F 53% 30.33 in 10.0 mi NNE 5.8 mph - N/A   Clear
5:53 PM 52.0 °F 41.0 °F 66% 30.35 in 10.0 mi Calm Calm - N/A   Clear
6:53 PM 53.1 °F 39.9 °F 61% 30.35 in 10.0 mi NNE 8.1 mph - N/A   Clear
7:53 PM 55.0 °F 39.9 °F 57% 30.36 in 10.0 mi NNE 10.4 mph - N/A   Clear
8:53 PM 55.0 °F 39.0 °F 55% 30.37 in 10.0 mi NE 9.2 mph - N/A   Clear
9:53 PM 54.0 °F 37.9 °F 55% 30.36 in 10.0 mi ENE 6.9 mph - N/A   Clear
10:53 PM 54.0 °F 37.9 °F 55% 30.36 in 10.0 mi ENE 5.8 mph - N/A   Clear
11:53 PM 52.0 °F 37.0 °F 57% 30.35 in 10.0 mi Calm Calm - N/A   Clear